TimeHST,TemperatureF,Dew PointF,Humidity,Sea Level PressureIn,VisibilityMPH,Wind Direction,Wind SpeedMPH,Gust SpeedMPH,PrecipitationIn,Events,Conditions,WindDirDegrees,DateUTC
12:53 AM,75.0,66.0,73,30.11,10.0,ENE,11.5,-,0.00,Rain,Light Rain,70,2013-06-23 10:53:00
1:53 AM,73.9,66.0,76,30.08,10.0,ENE,13.8,-,0.00,,Scattered Clouds,60,2013-06-23 11:53:00
2:53 AM,73.0,66.0,79,30.08,10.0,ENE,13.8,-,0.00,,Mostly Cloudy,60,2013-06-23 12:53:00
3:53 AM,73.9,66.0,76,30.07,10.0,ENE,8.1,-,N/A,,Mostly Cloudy,70,2013-06-23 13:53:00
4:53 AM,73.0,66.0,79,30.08,10.0,ENE,15.0,-,0.00,,Mostly Cloudy,60,2013-06-23 14:53:00
5:53 AM,72.0,66.0,81,30.08,10.0,NE,8.1,-,0.00,,Scattered Clouds,50,2013-06-23 15:53:00
6:53 AM,73.9,66.0,76,30.10,10.0,ENE,15.0,-,N/A,,Scattered Clouds,60,2013-06-23 16:53:00
7:53 AM,75.0,66.9,76,30.11,10.0,East,11.5,-,N/A,,Scattered Clouds,80,2013-06-23 17:53:00
8:53 AM,75.9,66.9,74,30.12,10.0,NE,10.4,-,0.00,,Mostly Cloudy,50,2013-06-23 18:53:00
9:53 AM,77.0,66.9,71,30.12,10.0,ENE,15.0,-,N/A,,Mostly Cloudy,60,2013-06-23 19:53:00
10:53 AM,79.0,66.9,66,30.12,10.0,NE,13.8,20.7,N/A,,Mostly Cloudy,40,2013-06-23 20:53:00
11:53 AM,79.0,66.9,66,30.13,10.0,NE,16.1,21.9,N/A,,Mostly Cloudy,50,2013-06-23 21:53:00
12:53 PM,82.0,64.9,56,30.11,10.0,NE,19.6,25.3,0.00,,Mostly Cloudy,50,2013-06-23 22:53:00
1:53 PM,81.0,66.0,60,30.10,10.0,ENE,12.7,-,N/A,,Mostly Cloudy,60,2013-06-23 23:53:00
2:53 PM,81.0,66.0,60,30.09,10.0,ENE,16.1,20.7,N/A,,Mostly Cloudy,60,2013-06-24 00:53:00
3:53 PM,75.9,69.1,79,30.08,10.0,NE,8.1,-,0.00,,Mostly Cloudy,40,2013-06-24 01:53:00
4:53 PM,80.1,66.0,62,30.06,10.0,NE,16.1,-,N/A,,Mostly Cloudy,40,2013-06-24 02:53:00
5:53 PM,77.0,66.0,69,30.07,10.0,NNE,9.2,-,N/A,,Scattered Clouds,30,2013-06-24 03:53:00
6:53 PM,75.9,66.0,71,30.09,10.0,NNE,9.2,-,N/A,,Scattered Clouds,30,2013-06-24 04:53:00
7:53 PM,75.9,66.0,71,30.11,10.0,NE,10.4,-,N/A,,Mostly Cloudy,50,2013-06-24 05:53:00
8:53 PM,73.9,66.9,79,30.12,10.0,NNE,5.8,-,N/A,,Mostly Cloudy,30,2013-06-24 06:53:00
9:53 PM,73.9,66.9,79,30.14,10.0,NE,5.8,-,N/A,,Scattered Clouds,40,2013-06-24 07:53:00
10:53 PM,73.9,66.0,76,30.14,10.0,ENE,12.7,-,N/A,,Mostly Cloudy,60,2013-06-24 08:53:00
11:53 PM,73.0,66.9,81,30.12,10.0,NE,10.4,-,0.00,,Mostly Cloudy,50,2013-06-24 09:53:00